{"data":{"norad_id":65185,"intl_designator":"2025-175M","name":"STARLINK-34945","alt_names":[],"object_type":"PAYLOAD","status":"ACTIVE","operator":null,"country":"US","launch_date":"2025-08-14","launch_site_code":"AFWTR","launch_vehicle":null,"mission":null,"orbit_class":"UNKNOWN","rcs_meters":null,"size_class":null,"mass_kg":null,"dimensions":null,"purposes":["comms"],"wikipedia_slug":null,"has_3d_model":false,"image_url":null,"decayed_at":null,"tle_current":{"epoch":"2026-09-20T22:03:46.750176Z","epoch_age_seconds":84697,"freshness":"FRESH","line1":"1 65185U 25175M   26263.91929109  .00008010  00000+0  25011-3 0  9994","line2":"2 65185  97.2849 132.8436 0002097  87.4503 272.6980 15.33449867 62190","mean_motion":15.33449867,"eccentricity":0.0002097,"inclination_deg":97.2849,"raan_deg":132.8436,"arg_perigee_deg":87.4503,"mean_anomaly_deg":272.698,"bstar":0.00025011,"rev_number":6219,"period_min":93.905906608944,"perigee_km":464.09357705268,"apogee_km":466.96381044464,"semimajor_km":6843.6656937487,"source":"CELESTRAK","updated_at":"2026-09-21T09:00:35.529638Z"}}}